Location: Newark
(34.6000°N, 98.3833°W)
Time: 20:49:35
(UTC+00:00)

N. Korean satellite - Visible Passes

Search period start: 18 October 2019 00:00
Search period end: 28 October 2019 00:00
Orbit: 455 x 508 km, 97.2° (Epoch: 18 October)

Date Brightness Start Highest point End Pass type
(mag) Time Alt. Az. Time Alt. Az. Time Alt. Az.
18 Oct 9.8 00:31:27 10° SW 00:33:58 19° W 00:36:30 10° NW visible
18 Oct 8.5 12:00:05 10° NNE 12:03:27 36° E 12:06:50 10° SSE visible
19 Oct 10.0 11:35:39 10° NE 11:38:04 17° E 11:40:30 10° SE visible
21 Oct 10.4 00:50:33 10° WSW 00:51:33 11° W 00:52:34 10° WNW visible
22 Oct 9.3 00:23:16 10° SSW 00:26:06 24° W 00:28:58 10° NW visible
22 Oct 9.0 11:52:25 10° NE 11:55:37 29° E 11:58:51 10° SSE visible
23 Oct 10.2 11:28:18 10° ENE 11:30:13 14° E 11:32:07 10° SE visible
25 Oct 10.0 00:41:44 10° SW 00:43:38 14° W 00:45:33 10° WNW visible
25 Oct 7.7 12:09:32 10° NNE 12:13:08 51° E 12:16:44 10° S visible
26 Oct 8.7 00:15:07 10° SSW 00:18:12 31° W 00:21:19 10° NNW visible
26 Oct 9.4 11:44:46 10° NE 11:47:45 23° E 11:50:45 10° SSE visible
27 Oct 10.5 11:21:20 10° ENE 11:22:19 11° E 11:23:17 10° ESE visible
